Flag for Germany Weather past 2 weeks in Korschenbroich, North Rhine-Westphalia, Germany

Now
61 °F

Scattered clouds.


Feels Like: 61 °F
Forecast: 51 / 60 °F
Wind: 3 mph from North

Location: Monchengladbach Airport

Current Time: May 24, 2015 at 12:17:18 PM

Latest Report: May 24, 2015 at 11:50 AM


Visibility: N/A

Pressure: 30.12 "Hg

Humidity: 59%

Dew point: 46 °F

Location of KorschenbroichLocation

Historic Weather in Korschenbroich — Graph

°F

Korschenbroich temperature yesterday

Maximum temperature yesterday: 66 °F (at 12:20 PM)
Minimum temperature yesterday: 55 °F (at 7:50 AM)
Average temperature yesterday: 62 °F

Past Weeks' High & Low Weather Summary

 TemperatureHumidityPressure
High81 °F (May 11, 4:50 PM)100% (May 16, 2:50 PM)30.33 "Hg (May 16, 2:50 PM)
Low41 °F (May 21, 6:20 AM)30% (May 11, 4:50 PM)29.65 "Hg (May 18, 6:20 PM)
Average61 °F57%30.08 "Hg
* Reported May 9 11:20 AM — May 24 11:20 AM, Korschenbroich, Weather by CustomWeather, © 2015

Note: Actual official high and low records may vary slightly from our data, if they occured in-between our weather recording intervals... More about our weather records

Advertising

Korschenbroich weather history for previous 24 hours

 ConditionsComfort  
Time TempWeatherWind HumidityBarometerVisibility
11:20 AM
Sun, May 24
59 °FSunny.3 mph59%30.12 "Hg10 mi
10:50 AM59 °FPassing clouds.2 mph63%30.12 "HgN/A
10:20 AM57 °FPassing clouds.2 mph67%30.12 "HgN/A
9:50 AM57 °FPartly sunny.2 mph72%30.12 "HgN/A
9:20 AM55 °FPartly sunny.1 mph67%30.12 "HgN/A
8:50 AM54 °FPartly sunny.2 mph72%30.12 "HgN/A
8:20 AM52 °FPartly sunny.2 mph77%30.12 "HgN/A
7:50 AM52 °FPartly sunny.3 mph77%30.12 "HgN/A
7:50 PM
Sat, May 23
59 °FPassing clouds.9 mph72%30.15 "HgN/A
7:20 PM59 °FPassing clouds.10 mph77%30.15 "HgN/A
6:50 PM59 °FPassing clouds.9 mph77%30.15 "HgN/A
6:20 PM59 °FPartly cloudy.10 mph77%30.15 "HgN/A
5:50 PM59 °FPartly cloudy.8 mph77%30.15 "HgN/A
5:20 PM59 °FPartly cloudy.12 mph82%30.15 "HgN/A
4:50 PM61 °FPartly cloudy.14 mph77%30.15 "HgN/A
4:20 PM63 °FPartly cloudy.13 mph73%30.12 "HgN/A
3:50 PM64 °FPartly cloudy.12 mph68%30.12 "HgN/A
3:20 PM66 °FPassing clouds.9 mph60%30.12 "HgN/A
2:50 PM66 °FPassing clouds.8 mph56%30.12 "HgN/A
2:20 PM66 °FPartly cloudy.9 mph56%30.12 "HgN/A
1:50 PM66 °FPassing clouds.9 mph52%30.15 "HgN/A
1:20 PM66 °FPassing clouds.7 mph52%30.15 "HgN/A
12:50 PM66 °FPassing clouds.8 mph46%30.15 "HgN/A
12:20 PM66 °FPassing clouds.9 mph49%30.15 "HgN/A
Weather by CustomWeather, © 2015

See weather overviewHow to use our weather pages